Search result: Courses in Autumn Semester 2018

Chemical Engineering Bachelor Information
Bachelor Studies (Programme Regulations 2006)
3. Semester
Compulsory Subjects Examination Block I
NumberTitleTypeECTSHoursLecturers
529-0121-00LInorganic Chemistry I Information O3 credits2V + 1U
529-0121-00 VAnorganische Chemie I2 hrs
Mon08:45-10:30HCI G 3 »
A. Mezzetti
529-0121-00 UAnorganische Chemie I1 hrs
Wed11:45-12:30HCI D 2 »
11:45-12:30HCI D 6 »
11:45-12:30HCI D 8 »
11:45-12:30HCI E 2 »
11:45-12:30HCI G 7 »
11:45-12:30HCI J 8 »
A. Mezzetti
529-0221-00LOrganic Chemistry IO3 credits2V + 1U
529-0221-00 VOrganische Chemie I2 hrs
Wed09:45-11:30HPV G 4 »
H. Wennemers
529-0221-00 UOrganische Chemie I1 hrs
Mon10:45-11:30HCI D 4 »
10:45-11:30HCI D 6 »
10:45-11:30HCI E 2 »
10:45-11:30HCI E 8 »
10:45-11:30HCI F 2 »
10:45-11:30HCI H 2.1 »
Tue07:45-08:30HCI H 8.1 »
07:45-08:30HCI J 7 »
H. Wennemers
529-0422-00LPhysical Chemistry II: Chemical Reaction Kinetics Information O4 credits3V + 1U
529-0422-00 VPhysikalische Chemie II: Chemische Reaktionskinetik3 hrs
Tue08:45-09:30HCI J 3 »
Fri07:45-09:30HCI J 3 »
U. Hollenstein
529-0422-00 UPhysikalische Chemie II: Chemische Reaktionskinetik1 hrs
Mon07:45-08:30HCI D 4 »
07:45-08:30HCI D 6 »
07:45-08:30HCI E 2 »
07:45-08:30HCI F 2 »
07:45-08:30HCI J 3 »
07:45-08:30HCP E 47.2 »
Wed16:45-17:30HCI D 4 »
16:45-17:30HCI H 8.1 »
Fri10:45-11:30HCI D 4 »
10:45-11:30HCI D 6 »
10:45-11:30HCI E 8 »
10:45-11:30HCI F 8 »
10:45-11:30HIT H 42 »
11:15-12:00HG G 26.3 »
U. Hollenstein
402-0083-00LPhysics IO4 credits3V + 1U
402-0083-00 VPhysik I3 hrs
Wed13:45-14:30HPH G 1 »
Fri09:45-11:30HPH G 1 »
G. Dissertori
402-0083-00 UPhysik I
Mi 15-16 bzw. Mi 16-17 gemäss Gruppeneinteilung.
(Mi 16-17 hauptsächlich für einige Übungsgruppen aus Studiengängen des D-CHAB)
1 hrs
Tue11:45-12:30HCI D 6 »
Wed14:45-15:30HCI D 8 »
14:45-15:30HCI F 8 »
14:45-15:30HCI J 6 »
14:45-15:30HCI J 8 »
14:45-15:30HIL E 1 »
14:45-15:30HIL E 10.1 »
14:45-15:30HIL E 3 »
14:45-15:30HIL E 9 »
14:45-15:30HIT H 42 »
14:45-15:30HIT K 51 »
14:45-15:30HIT K 52 »
14:45-15:30HPH G 1 »
14:45-15:30HPH G 3 »
14:45-15:30HPV G 4 »
15:45-16:30HCI H 8.1 »
15:45-16:30HCI J 6 »
15:45-16:30HCI J 8 »
15:45-16:30HIL E 10.1 »
12.12.14:45-15:30HIT F 32 »
G. Dissertori
529-0051-00LAnalytical Chemistry IO3 credits3G
529-0051-00 GAnalytische Chemie I3 hrs
Wed07:45-09:30HCI G 3 »
Thu07:45-08:30HPH G 3 »
D. Günther, M.‑O. Ebert, G. Schwarz, R. Zenobi
401-0373-00LMathematics III: Partial Differential Equations Information O4 credits2V + 1U
401-0373-00 VMathematik III: Partielle Differentialgleichungen
findet ab 27.09.2018 im HCI J 7 statt
2 hrs
Thu09:45-11:30HCI J 7 »
20.09.09:45-11:30HCI J 6 »
C. Busch
401-0373-00 UMathematik III: Partielle Differentialgleichungen
Do 9-10 oder Do 12-13 gemäss Gruppeneinteilung
1 hrs
Thu08:45-09:30HCI D 6 »
08:45-09:30HCI D 8 »
08:45-09:30HCI J 7 »
11:45-12:30HCI D 8 »
11:45-12:30HCP E 47.4 »
11:45-12:30HIL F 10.3 »
20.09.08:45-09:30HCI J 6 »
11.12.17:45-19:30HIL E 5 »
C. Busch
Laboratory Courses
NumberTitleTypeECTSHoursLecturers
529-0129-00LInorganic and Organic Chemistry II Restricted registration - show details
Latest online enrolment is one week before the beginning of the semester.
O11 credits16P
529-0129-00 PAnorganische und Organische Chemie II16 hrs
Mon12:45-16:30HCI H 174 »
12:45-16:30HCI H 190.2 »
12:45-16:30HCI H 192.2 »
12:45-16:30HCI H 194.2 »
12:45-16:30HCI H 196.2 »
12:45-16:30HCI H 296.2 »
Tue12:45-16:30HCI H 174 »
12:45-16:30HCI H 192.2 »
12:45-16:30HCI H 194.2 »
12:45-16:30HCI H 196.2 »
12:45-16:30HCI H 296.2 »
Thu12:45-16:30HCI H 174 »
12:45-16:30HCI H 190.2 »
12:45-16:30HCI H 192.2 »
12:45-16:30HCI H 194.2 »
12:45-16:30HCI H 196.2 »
12:45-16:30HCI H 296.2 »
Fri12:45-16:30HCI H 174 »
12:45-16:30HCI H 190.2 »
12:45-16:30HCI H 192.2 »
12:45-16:30HCI H 194.2 »
12:45-16:30HCI H 196.2 »
12:45-16:30HCI H 296.2 »
20.09.15:45-17:30HCI J 7 »
21.09.12:45-16:30HCI G 7 »
A. Mezzetti, A. Togni
5. Semester
Compulsory Subjects
Examination block Thermodynamics and Transport Phenomena
NumberTitleTypeECTSHoursLecturers
529-0557-00LChemical Engineering ThermodynamicsO4 credits3G
529-0557-00 GChemical Engineering Thermodynamics3 hrs
Wed13:45-16:30HCI H 2.1 »
28.11.13:45-16:30HCI J 4 »
A. Butté
151-0917-00LMass TransferO4 credits2V + 2U
151-0917-00 VMass Transfer2 hrs
Wed10:15-12:00ML H 44 »
S. E. Pratsinis, V. Mavrantzas
151-0917-00 UMass Transfer
The exercise will start in the 2nd week of the Semester.
2 hrs
Tue13:15-15:00HG E 1.1 »
A. Güntner, M. R. Kholghy
529-0636-00LHeat Transport and Fluid Dynamics Restricted registration - show details O4 credits4G
529-0636-00 GWärmetransport und Strömungslehre Special students and auditors need a special permission from the lecturers.
Permission from lecturers required for all students.
Dienstag 15:00 - 17:00 Uhr.
Findet nur alle zwei Wochen statt.
4 hrs
Mon10:15-13:00HG D 5.2 »
Tue/2w15:15-17:00HG E 33.3 »
A. A. Kubik
Examination Block Reaction Engineering and Modelling
NumberTitleTypeECTSHoursLecturers
529-0632-00LHomogeneous Reaction EngineeringO4 credits3G
529-0632-00 GHomogeneous Reaction Engineering3 hrs
Tue09:45-11:30HCI H 8.1 »
Wed12:45-13:30HCI D 2 »
M. Morbidelli, T. Casalini
752-4001-00LMicrobiologyO2 credits2V
752-4001-00 VMikrobiologie2 hrs
Mon15:15-17:00ML D 28 »
M. Ackermann, M. Schuppler, J. Vorholt-Zambelli
401-0675-00LStatistical and Numerical Methods for Chemical EngineersO3 credits2V + 2U
401-0675-00 VStatistical and Numerical Methods for Chemical Engineers2 hrs
Wed08:15-10:00HG E 33.1 »
R. Käppeli, P. Müller
401-0675-00 UStatistical and Numerical Methods for Chemical Engineers2 hrs
Tue07:45-09:30HCI G 174 »
M. Sokolov
351-0778-00LDiscovering Management
Entry level course in management for BSc, MSc and PHD students at all levels not belonging to D-MTEC. This course can be complemented with Discovering Management (Excercises) 351-0778-01.
O3 credits3G
351-0778-00 GDiscovering Management3 hrs
Fri08:15-11:00HG G 3 »
14.12.08:15-11:00WEV F 107 »
B. Clarysse, M. Ambühl, S. Brusoni, E. Fleisch, G. Grote, V. Hoffmann, T. Netland, G. von Krogh, F. von Wangenheim
Examination Block Catalysis and Heterogeneous Process Engineering
Courses will be held in spring semester
Examination Block Process Engineering
Courses will be held in spring semester
Laboratory Courses and Case Studies
NumberTitleTypeECTSHoursLecturers
529-0549-01LCase Studies in Process Design IO3 credits3A
529-0549-01 ACase Studies in Process Design I
This course does not take place on a weekly basis. Instead, a case study is carried out by the students in a specific "case study week" to be announced at the beginning of the lecture. Lectures about "data acquisition and patents" will be held on some of the rest of the available dates.
19/11-23/11 in HCI G 174.
39s hrs
05.10.12:45-15:30HCI J 4 »
12.10.12:45-15:30HCI J 4 »
19.10.12:45-15:30HCI J 4 »
26.10.12:45-15:30HCI J 4 »
S. Papadokonstantakis, J. Dolenc, U. Fischer
529-0639-01LChemical Engineering LaboratoryO6 credits8P
529-0639-01 PChemieingenieurwesen BSc8 hrs
Thu08:45-11:30HCI »
12:45-16:30HCI »
N. Kobert, R. Grass
  •  Page  1  of  1